Time,TemperatureF,DewpointF,PressureIn,WindDirection,WindDirectionDegrees,WindSpeedMPH,WindSpeedGustMPH,Humidity,HourlyPrecipIn,Conditions,Clouds,dailyrainin,SoftwareType,DateUTC
2013-03-20 00:00:00,34.7,-2.3,29.89,SW,214,3.1,3.1,20,0.00,,---,0.28,VWS V14.01,2013-03-20 04:00:00,
2013-03-20 00:01:00,34.7,-2.3,29.89,North,353,2.7,5.4,20,0.00,,---,0.00,VWS V14.01,2013-03-20 04:01:00,
2013-03-20 00:06:00,34.9,-2.1,29.89,WSW,244,3.6,3.6,20,0.00,,---,0.00,VWS V14.01,2013-03-20 04:06:00,
2013-03-20 00:11:00,35.1,-2.0,29.89,SSW,212,2.2,2.7,20,0.00,,---,0.00,VWS V14.01,2013-03-20 04:11:00,
2013-03-20 00:16:00,34.9,-2.1,29.89,SW,223,5.4,5.4,20,0.00,,---,0.00,VWS V14.01,2013-03-20 04:16:00,
2013-03-20 00:22:00,34.5,-2.4,29.89,SE,134,6.3,6.3,20,0.00,,---,0.00,VWS V14.01,2013-03-20 04:22:00,
2013-03-20 00:27:00,34.2,-2.7,29.92,SSE,156,8.1,8.1,20,0.00,,---,0.00,VWS V14.01,2013-03-20 04:27:00,
2013-03-20 00:32:00,34.3,-2.6,29.92,SW,214,2.7,5.8,20,0.00,,---,0.00,VWS V14.01,2013-03-20 04:32:00,
2013-03-20 00:37:00,34.3,-2.6,29.92,NNW,333,3.6,5.4,20,0.00,,---,0.00,VWS V14.01,2013-03-20 04:37:00,
2013-03-20 00:45:00,34.5,-2.4,29.89,NE,51,0.0,0.0,20,0.00,,---,0.00,VWS V14.01,2013-03-20 04:45:00,
2013-03-20 00:50:00,34.0,-2.9,29.89,ESE,104,4.9,5.4,20,0.00,,---,0.00,VWS V14.01,2013-03-20 04:50:00,
2013-03-20 00:55:00,33.6,-3.2,29.89,SE,141,2.7,4.0,20,0.00,,---,0.00,VWS V14.01,2013-03-20 04:55:00,
2013-03-20 01:00:00,33.3,-3.5,29.92,ENE,71,2.7,2.7,20,0.00,,---,0.00,VWS V14.01,2013-03-20 05:00:00,
2013-03-20 01:05:00,32.9,-3.8,29.92,ESE,120,0.0,0.0,20,0.00,,---,0.00,VWS V14.01,2013-03-20 05:05:00,
2013-03-20 01:10:00,32.7,-3.9,29.92,SW,219,0.0,4.0,20,0.00,,---,0.00,VWS V14.01,2013-03-20 05:10:00,
2013-03-20 01:15:00,32.7,-3.9,29.92,South,170,5.4,5.4,20,0.00,,---,0.00,VWS V14.01,2013-03-20 05:15:00,
2013-03-20 01:20:00,32.7,-3.9,29.92,WSW,244,0.0,0.0,20,0.00,,---,0.00,VWS V14.01,2013-03-20 05:20:00,
2013-03-20 01:25:00,32.5,-4.1,29.92,West,263,3.1,3.1,20,0.00,,---,0.00,VWS V14.01,2013-03-20 05:25:00,
2013-03-20 01:30:00,32.5,-4.1,29.92,WSW,249,4.0,4.0,20,0.00,,---,0.00,VWS V14.01,2013-03-20 05:30:00,
2013-03-20 01:39:00,32.9,-3.8,29.92,SSE,162,4.5,8.1,20,0.00,,---,0.00,VWS V14.01,2013-03-20 05:39:00,
2013-03-20 01:44:00,33.1,-3.6,29.92,North,0,0.0,0.0,20,0.00,,---,0.00,VWS V14.01,2013-03-20 05:44:00,
2013-03-20 01:49:00,32.4,-4.2,29.92,West,268,5.4,5.4,20,0.00,,---,0.00,VWS V14.01,2013-03-20 05:49:00,
2013-03-20 01:54:00,31.6,-4.8,29.92,SW,225,0.0,0.0,20,0.00,,---,0.00,VWS V14.01,2013-03-20 05:54:00,
2013-03-20 01:59:00,31.5,-2.0,29.92,SE,145,0.0,0.0,23,0.00,,---,0.00,VWS V14.01,2013-03-20 05:59:00,
2013-03-20 02:04:00,31.5,-2.0,29.92,ESE,108,4.0,5.8,23,0.00,,---,0.00,VWS V14.01,2013-03-20 06:04:00,
2013-03-20 02:09:00,31.5,-2.0,29.92,ENE,57,3.6,3.6,23,0.00,,---,0.00,VWS V14.01,2013-03-20 06:09:00,
2013-03-20 02:14:00,31.6,-1.9,29.92,WSW,239,0.0,3.6,23,0.00,,---,0.00,VWS V14.01,2013-03-20 06:14:00,
2013-03-20 02:19:00,31.6,-1.9,29.92,SSW,197,5.4,5.4,23,0.00,,---,0.00,VWS V14.01,2013-03-20 06:19:00,
2013-03-20 02:24:00,31.3,-2.2,29.92,SSE,147,0.0,2.2,23,0.00,,---,0.00,VWS V14.01,2013-03-20 06:24:00,
2013-03-20 02:29:00,31.3,-2.2,29.92,North,350,2.7,4.0,23,0.00,,---,0.00,VWS V14.01,2013-03-20 06:29:00,
2013-03-20 02:34:00,31.1,-2.4,29.92,SSW,202,5.8,5.8,23,0.00,,---,0.00,VWS V14.01,2013-03-20 06:34:00,
2013-03-20 02:39:00,31.3,-2.2,29.92,SSW,206,0.0,0.0,23,0.00,,---,0.00,VWS V14.01,2013-03-20 06:39:00,
2013-03-20 02:44:00,31.5,-2.0,29.92,SSW,208,4.0,6.3,23,0.00,,---,0.00,VWS V14.01,2013-03-20 06:44:00,
2013-03-20 02:49:00,31.8,-1.8,29.92,East,101,5.8,5.8,23,0.00,,---,0.00,VWS V14.01,2013-03-20 06:49:00,
2013-03-20 02:54:00,31.6,-1.9,29.92,WSW,253,2.7,2.7,23,0.00,,---,0.00,VWS V14.01,2013-03-20 06:54:00,
2013-03-20 02:59:00,31.6,-1.9,29.92,South,185,2.7,2.7,23,0.00,,---,0.00,VWS V14.01,2013-03-20 06:59:00,
2013-03-20 03:04:00,31.1,-2.4,29.92,South,185,0.0,0.0,23,0.00,,---,0.00,VWS V14.01,2013-03-20 07:04:00,
2013-03-20 03:09:00,30.7,-2.7,29.92,SW,232,3.1,3.6,23,0.00,,---,0.00,VWS V14.01,2013-03-20 07:09:00,
2013-03-20 03:14:00,30.7,-2.7,29.92,SSW,206,0.0,0.0,23,0.00,,---,0.00,VWS V14.01,2013-03-20 07:14:00,
2013-03-20 03:19:00,30.6,-2.8,29.92,SE,127,0.0,2.2,23,0.00,,---,0.00,VWS V14.01,2013-03-20 07:19:00,
2013-03-20 03:25:00,30.0,-3.3,29.92,WSW,244,2.7,4.0,23,0.00,,---,0.00,VWS V14.01,2013-03-20 07:25:00,
2013-03-20 03:30:00,29.8,-3.4,29.92,South,179,0.0,0.0,23,0.00,,---,0.00,VWS V14.01,2013-03-20 07:30:00,
2013-03-20 03:35:00,29.5,-2.0,29.92,SSW,199,0.0,0.0,25,0.00,,---,0.00,VWS V14.01,2013-03-20 07:35:00,
2013-03-20 03:40:00,29.3,-2.2,29.92,East,82,0.0,0.0,25,0.00,,---,0.00,VWS V14.01,2013-03-20 07:40:00,
2013-03-20 03:45:00,29.1,-2.3,29.89,SE,136,0.0,2.7,25,0.00,,---,0.00,VWS V14.01,2013-03-20 07:45:00,
2013-03-20 03:50:00,29.5,-2.0,29.89,South,180,4.0,4.0,25,0.00,,---,0.00,VWS V14.01,2013-03-20 07:50:00,
2013-03-20 03:55:00,30.0,-3.3,29.89,SSE,152,5.8,5.8,23,0.00,,---,0.00,VWS V14.01,2013-03-20 07:55:00,
2013-03-20 04:00:00,30.2,-3.1,29.89,SE,136,3.1,3.1,23,0.00,,---,0.00,VWS V14.01,2013-03-20 08:00:00,
2013-03-20 04:05:00,30.2,-3.1,29.89,SW,233,2.2,2.2,23,0.00,,---,0.00,VWS V14.01,2013-03-20 08:05:00,
2013-03-20 04:10:00,30.4,-3.0,29.89,SSE,158,4.9,6.3,23,0.00,,---,0.00,VWS V14.01,2013-03-20 08:10:00,
2013-03-20 04:23:00,29.8,-3.4,29.89,South,175,5.4,5.4,23,0.00,,---,0.00,VWS V14.01,2013-03-20 08:23:00,
2013-03-20 04:28:00,29.3,-3.9,29.89,SE,131,2.7,2.7,23,0.00,,---,0.00,VWS V14.01,2013-03-20 08:28:00,
2013-03-20 04:33:00,29.1,-4.1,29.89,SSW,201,5.8,5.8,23,0.00,,---,0.00,VWS V14.01,2013-03-20 08:33:00,
2013-03-20 04:38:00,29.5,-3.7,29.89,ENE,61,0.0,0.0,23,0.00,,---,0.00,VWS V14.01,2013-03-20 08:38:00,
2013-03-20 04:44:00,29.7,-3.6,29.89,SSW,204,7.6,7.6,23,0.00,,---,0.00,VWS V14.01,2013-03-20 08:44:00,
2013-03-20 04:49:00,29.8,-3.4,29.89,SSW,198,3.6,4.5,23,0.00,,---,0.00,VWS V14.01,2013-03-20 08:49:00,
2013-03-20 04:54:00,29.8,-3.4,29.89,ESE,103,0.0,0.0,23,0.00,,---,0.00,VWS V14.01,2013-03-20 08:54:00,
2013-03-20 04:59:00,29.3,-3.9,29.89,South,176,2.7,3.1,23,0.00,,---,0.00,VWS V14.01,2013-03-20 08:59:00,
2013-03-20 05:04:00,29.3,-3.9,29.89,SSE,164,2.2,4.0,23,0.00,,---,0.00,VWS V14.01,2013-03-20 09:04:00,
2013-03-20 05:09:00,29.1,-4.1,29.89,SSW,211,4.0,4.0,23,0.00,,---,0.00,VWS V14.01,2013-03-20 09:09:00,
2013-03-20 05:14:00,29.1,-4.1,29.89,South,182,0.0,4.0,23,0.00,,---,0.00,VWS V14.01,2013-03-20 09:14:00,
2013-03-20 05:19:00,28.6,-4.5,29.89,South,177,0.0,0.0,23,0.00,,---,0.00,VWS V14.01,2013-03-20 09:19:00,
2013-03-20 05:24:00,28.2,-2.2,29.89,NE,50,0.0,2.2,26,0.00,,---,0.00,VWS V14.01,2013-03-20 09:24:00,
2013-03-20 05:29:00,27.7,-2.7,29.89,ENE,67,0.0,0.0,26,0.00,,---,0.00,VWS V14.01,2013-03-20 09:29:00,
2013-03-20 05:34:00,27.3,-3.0,29.89,NE,37,0.0,0.0,26,0.00,,---,0.00,VWS V14.01,2013-03-20 09:34:00,
2013-03-20 05:39:00,27.1,-3.2,29.89,NE,37,0.0,0.0,26,0.00,,---,0.00,VWS V14.01,2013-03-20 09:39:00,
2013-03-20 05:44:00,27.0,-3.3,29.89,NE,37,0.0,0.0,26,0.00,,---,0.00,VWS V14.01,2013-03-20 09:44:00,
2013-03-20 05:49:00,27.0,-1.8,29.89,North,11,0.0,0.0,28,0.00,,---,0.00,VWS V14.01,2013-03-20 09:49:00,
2013-03-20 05:54:00,26.8,-1.9,29.89,South,179,0.0,0.0,28,0.00,,---,0.00,VWS V14.01,2013-03-20 09:54:00,
2013-03-20 05:59:00,26.8,-1.9,29.89,ENE,64,0.0,0.0,28,0.00,,---,0.00,VWS V14.01,2013-03-20 09:59:00,
2013-03-20 06:04:00,27.0,-1.8,29.89,SSW,212,0.0,0.0,28,0.00,,---,0.00,VWS V14.01,2013-03-20 10:04:00,
2013-03-20 10:09:00,32.0,2.6,29.92,SW,216,2.7,3.6,28,0.00,,---,0.00,VWS V14.01,2013-03-20 14:09:00,
2013-03-20 10:14:00,32.4,2.9,29.92,SW,218,10.5,10.5,28,0.00,,---,0.00,VWS V14.01,2013-03-20 14:14:00,
2013-03-20 10:20:00,32.7,3.2,29.92,South,178,2.7,7.6,28,0.00,,---,0.00,VWS V14.01,2013-03-20 14:20:00,
2013-03-20 10:25:00,33.1,1.1,29.92,WNW,293,4.9,10.5,25,0.00,,---,0.00,VWS V14.01,2013-03-20 14:25:00,
2013-03-20 10:30:00,33.3,3.7,29.92,ESE,104,3.6,4.9,28,0.00,,---,0.00,VWS V14.01,2013-03-20 14:30:00,
2013-03-20 10:35:00,33.6,1.6,29.92,WSW,252,3.6,8.3,25,0.00,,---,0.00,VWS V14.01,2013-03-20 14:35:00,
2013-03-20 10:40:00,34.0,3.5,29.92,ESE,104,0.0,0.0,27,0.00,,---,0.00,VWS V14.01,2013-03-20 14:40:00,
2013-03-20 10:45:00,34.5,4.0,29.92,South,183,3.1,3.6,27,0.00,,---,0.00,VWS V14.01,2013-03-20 14:45:00,
2013-03-20 10:50:00,34.7,2.5,29.92,SSW,197,2.2,2.2,25,0.00,,---,0.00,VWS V14.01,2013-03-20 14:50:00,
2013-03-20 10:55:00,34.7,2.5,29.92,West,262,6.7,8.1,25,0.00,,---,0.00,VWS V14.01,2013-03-20 14:55:00,
2013-03-20 11:00:00,35.1,2.8,29.92,SSW,210,8.7,8.7,25,0.00,,---,0.00,VWS V14.01,2013-03-20 15:00:00,
2013-03-20 11:05:00,35.1,2.8,29.92,SSW,195,6.3,6.3,25,0.00,,---,0.00,VWS V14.01,2013-03-20 15:05:00,
2013-03-20 11:10:00,35.2,3.0,29.92,WNW,285,5.8,8.7,25,0.00,,---,0.00,VWS V14.01,2013-03-20 15:10:00,
2013-03-20 11:16:00,35.4,3.1,29.89,SSW,199,8.7,8.7,25,0.00,,---,0.00,VWS V14.01,2013-03-20 15:16:00,
2013-03-20 11:21:00,36.0,2.7,29.89,SSE,154,4.0,5.8,24,0.00,,---,0.00,VWS V14.01,2013-03-20 15:21:00,
2013-03-20 11:26:00,36.3,3.0,29.89,SSW,200,9.6,13.2,24,0.00,,---,0.00,VWS V14.01,2013-03-20 15:26:00,
2013-03-20 11:31:00,36.3,3.0,29.89,SSW,212,6.3,6.3,24,0.00,,---,0.00,VWS V14.01,2013-03-20 15:31:00,
2013-03-20 11:36:00,36.9,3.5,29.89,WSW,241,8.7,10.1,24,0.00,,---,0.00,VWS V14.01,2013-03-20 15:36:00,
2013-03-20 11:41:00,36.9,3.5,29.89,NNW,337,3.6,5.4,24,0.00,,---,0.00,VWS V14.01,2013-03-20 15:41:00,
2013-03-20 11:46:00,37.0,3.6,29.89,SW,227,4.9,5.4,24,0.00,,---,0.00,VWS V14.01,2013-03-20 15:46:00,
2013-03-20 11:51:00,37.6,4.1,29.89,SSW,197,8.7,8.7,24,0.00,,---,0.00,VWS V14.01,2013-03-20 15:51:00,
2013-03-20 11:56:00,37.4,3.9,29.89,SW,216,3.6,5.4,24,0.00,,---,0.00,VWS V14.01,2013-03-20 15:56:00,
2013-03-20 12:01:00,37.6,4.1,29.89,SW,228,6.3,10.1,24,0.00,,---,0.00,VWS V14.01,2013-03-20 16:01:00,
2013-03-20 12:06:00,38.1,4.5,29.89,West,278,6.3,6.3,24,0.00,,---,0.00,VWS V14.01,2013-03-20 16:06:00,
2013-03-20 12:11:00,38.7,5.0,29.89,South,170,4.9,7.6,24,0.00,,---,0.00,VWS V14.01,2013-03-20 16:11:00,
2013-03-20 12:16:00,38.8,5.2,29.89,SW,222,5.8,8.1,24,0.00,,---,0.00,VWS V14.01,2013-03-20 16:16:00,
2013-03-20 12:21:00,39.2,4.5,29.89,WSW,246,9.6,9.6,23,0.00,,---,0.00,VWS V14.01,2013-03-20 16:21:00,
2013-03-20 12:27:00,39.9,5.1,29.86,SSW,202,8.1,12.3,23,0.00,,---,0.00,VWS V14.01,2013-03-20 16:27:00,
2013-03-20 12:32:00,39.9,3.2,29.86,SSW,212,6.3,6.3,21,0.00,,---,0.00,VWS V14.01,2013-03-20 16:32:00,
2013-03-20 12:37:00,39.7,3.0,29.86,South,190,8.7,8.7,21,0.00,,---,0.00,VWS V14.01,2013-03-20 16:37:00,
2013-03-20 12:42:00,39.9,3.2,29.86,South,179,5.8,6.3,21,0.00,,---,0.00,VWS V14.01,2013-03-20 16:42:00,
2013-03-20 12:47:00,40.3,5.4,29.86,SSW,213,6.3,6.3,23,0.00,,---,0.00,VWS V14.01,2013-03-20 16:47:00,
2013-03-20 12:52:00,40.8,3.9,29.86,SSW,207,13.2,13.2,21,0.00,,---,0.00,VWS V14.01,2013-03-20 16:52:00,
2013-03-20 12:57:00,41.2,4.2,29.86,WSW,246,8.3,12.8,21,0.00,,---,0.00,VWS V14.01,2013-03-20 16:57:00,
2013-03-20 13:02:00,41.0,4.1,29.86,West,263,5.4,8.1,21,0.00,,---,0.00,VWS V14.01,2013-03-20 17:02:00,
2013-03-20 13:07:00,41.9,4.8,29.86,WSW,248,10.1,10.1,21,0.00,,---,0.00,VWS V14.01,2013-03-20 17:07:00,
2013-03-20 13:12:00,42.3,5.1,29.83,WSW,239,10.1,13.2,21,0.00,,---,0.00,VWS V14.01,2013-03-20 17:12:00,
2013-03-20 13:17:00,42.3,5.1,29.83,SW,229,5.8,8.3,21,0.00,,---,0.00,VWS V14.01,2013-03-20 17:17:00,
2013-03-20 13:22:00,42.4,5.3,29.83,WSW,238,5.4,10.1,21,0.00,,---,0.00,VWS V14.01,2013-03-20 17:22:00,
2013-03-20 13:27:00,42.1,5.0,29.83,SW,234,8.7,8.7,21,0.00,,---,0.00,VWS V14.01,2013-03-20 17:27:00,
2013-03-20 13:33:00,42.1,5.0,29.83,South,190,7.6,8.3,21,0.00,,---,0.00,VWS V14.01,2013-03-20 17:33:00,
2013-03-20 13:38:00,43.0,4.7,29.83,SW,226,10.5,10.5,20,0.00,,---,0.00,VWS V14.01,2013-03-20 17:38:00,
2013-03-20 13:43:00,43.9,5.4,29.83,SW,214,8.1,23.3,20,0.00,,---,0.00,VWS V14.01,2013-03-20 17:43:00,
2013-03-20 13:48:00,44.1,5.6,29.83,SW,224,8.1,12.3,20,0.00,,---,0.00,VWS V14.01,2013-03-20 17:48:00,
2013-03-20 13:53:00,44.2,5.7,29.83,SW,220,8.7,14.1,20,0.00,,---,0.00,VWS V14.01,2013-03-20 17:53:00,
2013-03-20 13:58:00,43.2,4.8,29.80,WSW,250,6.3,12.8,20,0.00,,---,0.00,VWS V14.01,2013-03-20 17:58:00,
2013-03-20 14:03:00,43.2,4.8,29.80,WSW,258,8.7,8.7,20,0.00,,---,0.00,VWS V14.01,2013-03-20 18:03:00,
2013-03-20 14:08:00,44.8,6.2,29.80,SW,229,10.1,16.3,20,0.00,,---,0.00,VWS V14.01,2013-03-20 18:08:00,
2013-03-20 14:13:00,44.6,6.0,29.80,SW,226,12.3,17.0,20,0.00,,---,0.00,VWS V14.01,2013-03-20 18:13:00,
2013-03-20 14:18:00,44.1,5.6,29.80,WNW,299,8.7,11.0,20,0.00,,---,0.00,VWS V14.01,2013-03-20 18:18:00,
2013-03-20 14:23:00,44.6,6.0,29.80,SSE,158,8.7,11.4,20,0.00,,---,0.00,VWS V14.01,2013-03-20 18:23:00,
2013-03-20 14:28:00,44.8,6.2,29.80,SW,233,10.1,11.9,20,0.00,,---,0.00,VWS V14.01,2013-03-20 18:28:00,
2013-03-20 14:33:00,44.6,6.0,29.80,SW,235,7.6,12.8,20,0.00,,---,0.00,VWS V14.01,2013-03-20 18:33:00,
2013-03-20 14:38:00,44.8,6.2,29.80,SSW,210,8.1,10.5,20,0.00,,---,0.00,VWS V14.01,2013-03-20 18:38:00,
2013-03-20 14:44:00,44.6,6.0,29.80,SSW,205,10.5,12.3,20,0.00,,---,0.00,VWS V14.01,2013-03-20 18:44:00,
2013-03-20 14:49:00,44.1,5.6,29.80,SW,218,9.6,10.5,20,0.00,,---,0.00,VWS V14.01,2013-03-20 18:49:00,
2013-03-20 14:54:00,43.7,5.3,29.80,SSW,211,5.8,8.3,20,0.00,,---,0.00,VWS V14.01,2013-03-20 18:54:00,
2013-03-20 14:59:00,43.5,5.1,29.77,SW,229,12.8,12.8,20,0.00,,---,0.00,VWS V14.01,2013-03-20 18:59:00,
2013-03-20 15:04:00,43.9,5.4,29.77,SSE,164,5.4,6.3,20,0.00,,---,0.00,VWS V14.01,2013-03-20 19:04:00,
2013-03-20 15:09:00,44.2,5.7,29.77,SW,218,6.3,7.6,20,0.00,,---,0.00,VWS V14.01,2013-03-20 19:09:00,
2013-03-20 15:14:00,45.5,6.8,29.77,SSW,208,7.2,12.8,20,0.00,,---,0.00,VWS V14.01,2013-03-20 19:14:00,
2013-03-20 15:19:00,46.0,7.2,29.77,South,189,5.4,6.3,20,0.00,,---,0.00,VWS V14.01,2013-03-20 19:19:00,
2013-03-20 15:24:00,46.6,6.5,29.77,WSW,252,7.6,9.6,19,0.00,,---,0.00,VWS V14.01,2013-03-20 19:24:00,
2013-03-20 15:29:00,46.6,6.5,29.74,SSE,163,5.8,8.3,19,0.00,,---,0.00,VWS V14.01,2013-03-20 19:29:00,
2013-03-20 15:34:00,46.0,7.2,29.74,SSE,147,6.3,7.6,20,0.00,,---,0.00,VWS V14.01,2013-03-20 19:34:00,
2013-03-20 15:39:00,45.1,6.5,29.74,SW,218,8.3,8.3,20,0.00,,---,0.00,VWS V14.01,2013-03-20 19:39:00,
2013-03-20 15:44:00,44.8,6.2,29.74,WSW,247,4.0,6.3,20,0.00,,---,0.00,VWS V14.01,2013-03-20 19:44:00,
2013-03-20 15:49:00,45.0,6.3,29.74,SW,231,2.7,3.1,20,0.00,,---,0.00,VWS V14.01,2013-03-20 19:49:00,
2013-03-20 15:54:00,45.0,6.3,29.74,South,190,8.1,8.3,20,0.00,,---,0.00,VWS V14.01,2013-03-20 19:54:00,
2013-03-20 15:59:00,44.8,6.2,29.74,SSW,203,11.0,15.0,20,0.00,,---,0.00,VWS V14.01,2013-03-20 19:59:00,
2013-03-20 16:04:00,44.6,6.0,29.74,SSW,211,6.3,8.1,20,0.00,,---,0.00,VWS V14.01,2013-03-20 20:04:00,
2013-03-20 16:09:00,45.1,6.5,29.74,WSW,243,5.4,10.1,20,0.00,,---,0.00,VWS V14.01,2013-03-20 20:09:00,
2013-03-20 16:14:00,45.7,6.9,29.74,WSW,244,7.6,7.6,20,0.00,,---,0.00,VWS V14.01,2013-03-20 20:14:00,
2013-03-20 16:19:00,46.2,7.4,29.74,SW,227,8.3,13.2,20,0.00,,---,0.00,VWS V14.01,2013-03-20 20:19:00,
2013-03-20 16:25:00,45.9,7.1,29.74,West,262,10.5,10.5,20,0.00,,---,0.00,VWS V14.01,2013-03-20 20:25:00,
2013-03-20 16:30:00,45.7,6.9,29.74,West,265,9.6,9.6,20,0.00,,---,0.00,VWS V14.01,2013-03-20 20:30:00,
2013-03-20 16:35:00,45.9,7.1,29.74,WSW,244,7.6,12.8,20,0.00,,---,0.00,VWS V14.01,2013-03-20 20:35:00,
2013-03-20 16:40:00,45.5,6.8,29.74,SSW,202,7.6,10.5,20,0.00,,---,0.00,VWS V14.01,2013-03-20 20:40:00,
2013-03-20 16:45:00,45.0,6.3,29.74,SSW,207,8.1,19.2,20,0.00,,---,0.00,VWS V14.01,2013-03-20 20:45:00,
2013-03-20 16:50:00,44.4,5.9,29.74,SW,215,8.1,8.1,20,0.00,,---,0.00,VWS V14.01,2013-03-20 20:50:00,
2013-03-20 16:55:00,44.1,5.6,29.74,SSW,213,8.1,8.1,20,0.00,,---,0.00,VWS V14.01,2013-03-20 20:55:00,
2013-03-20 17:00:00,44.1,5.6,29.71,SW,220,13.2,13.2,20,0.00,,---,0.00,VWS V14.01,2013-03-20 21:00:00,
2013-03-20 17:05:00,45.0,6.3,29.71,SSW,202,6.7,6.7,20,0.00,,---,0.00,VWS V14.01,2013-03-20 21:05:00,
2013-03-20 17:10:00,45.3,6.6,29.71,SW,234,6.3,6.3,20,0.00,,---,0.00,VWS V14.01,2013-03-20 21:10:00,
2013-03-20 17:15:00,44.4,5.9,29.71,SW,231,4.0,5.8,20,0.00,,---,0.00,VWS V14.01,2013-03-20 21:15:00,
2013-03-20 17:20:00,43.7,5.3,29.71,WSW,238,7.6,8.3,20,0.00,,---,0.00,VWS V14.01,2013-03-20 21:20:00,
2013-03-20 17:25:00,43.2,4.8,29.71,SW,219,4.9,4.9,20,0.00,,---,0.00,VWS V14.01,2013-03-20 21:25:00,
2013-03-20 17:30:00,43.0,4.7,29.71,SSE,159,2.7,5.4,20,0.00,,---,0.00,VWS V14.01,2013-03-20 21:30:00,
2013-03-20 17:35:00,43.2,4.8,29.71,SW,226,4.9,5.4,20,0.00,,---,0.00,VWS V14.01,2013-03-20 21:35:00,
2013-03-20 17:40:00,43.2,4.8,29.71,SSW,207,5.4,5.4,20,0.00,,---,0.00,VWS V14.01,2013-03-20 21:40:00,
2013-03-20 17:45:00,43.0,4.7,29.71,WSW,244,4.5,5.8,20,0.00,,---,0.00,VWS V14.01,2013-03-20 21:45:00,
2013-03-20 17:50:00,42.8,4.5,29.71,SE,140,5.4,6.3,20,0.00,,---,0.00,VWS V14.01,2013-03-20 21:50:00,
2013-03-20 17:55:00,42.6,5.4,29.71,SW,226,6.3,10.1,21,0.00,,---,0.00,VWS V14.01,2013-03-20 21:55:00,
2013-03-20 18:00:00,42.4,5.3,29.71,SW,214,7.6,7.6,21,0.00,,---,0.00,VWS V14.01,2013-03-20 22:00:00,
2013-03-20 18:05:00,42.3,5.1,29.71,SSW,205,5.4,5.4,21,0.00,,---,0.00,VWS V14.01,2013-03-20 22:05:00,
2013-03-20 18:11:00,42.3,5.1,29.71,SSW,213,12.8,12.8,21,0.00,,---,0.00,VWS V14.01,2013-03-20 22:11:00,
2013-03-20 18:16:00,42.1,5.0,29.71,South,179,8.1,8.1,21,0.00,,---,0.00,VWS V14.01,2013-03-20 22:16:00,
2013-03-20 18:21:00,42.1,5.0,29.71,SSW,207,5.8,8.3,21,0.00,,---,0.00,VWS V14.01,2013-03-20 22:21:00,
2013-03-20 18:26:00,42.1,5.0,29.71,WSW,257,6.3,7.6,21,0.00,,---,0.00,VWS V14.01,2013-03-20 22:26:00,
2013-03-20 18:31:00,42.1,5.0,29.71,SSW,210,5.4,5.4,21,0.00,,---,0.00,VWS V14.01,2013-03-20 22:31:00,
2013-03-20 18:37:00,42.3,5.1,29.71,SW,231,4.0,4.0,21,0.00,,---,0.00,VWS V14.01,2013-03-20 22:37:00,
2013-03-20 18:42:00,42.1,5.0,29.68,SSE,167,4.0,4.0,21,0.00,,---,0.00,VWS V14.01,2013-03-20 22:42:00,
2013-03-20 18:47:00,42.1,5.0,29.68,SW,229,5.8,5.8,21,0.00,,---,0.00,VWS V14.01,2013-03-20 22:47:00,
2013-03-20 18:52:00,42.3,5.1,29.68,SW,223,5.8,5.8,21,0.00,,---,0.00,VWS V14.01,2013-03-20 22:52:00,
2013-03-20 18:57:00,42.4,5.3,29.68,SW,215,5.8,6.3,21,0.00,,---,0.00,VWS V14.01,2013-03-20 22:57:00,
2013-03-20 19:02:00,42.3,5.1,29.68,SW,236,10.5,11.4,21,0.00,,---,0.00,VWS V14.01,2013-03-20 23:02:00,
2013-03-20 19:07:00,41.7,4.7,29.68,WSW,237,3.6,3.6,21,0.00,,---,0.00,VWS V14.01,2013-03-20 23:07:00,
2013-03-20 19:12:00,41.2,4.2,29.71,SSW,194,5.4,5.4,21,0.00,,---,0.00,VWS V14.01,2013-03-20 23:12:00,
2013-03-20 19:17:00,41.0,4.1,29.71,South,176,0.0,0.0,21,0.00,,---,0.00,VWS V14.01,2013-03-20 23:17:00,
2013-03-20 19:22:00,40.6,3.8,29.71,SW,225,5.8,5.8,21,0.00,,---,0.00,VWS V14.01,2013-03-20 23:22:00,
2013-03-20 19:27:00,40.5,3.6,29.68,SSE,156,2.7,2.7,21,0.00,,---,0.00,VWS V14.01,2013-03-20 23:27:00,
2013-03-20 19:32:00,39.9,3.2,29.68,West,271,0.0,3.1,21,0.00,,---,0.00,VWS V14.01,2013-03-20 23:32:00,
2013-03-20 19:38:00,39.7,3.0,29.68,West,263,3.6,6.3,21,0.00,,---,0.00,VWS V14.01,2013-03-20 23:38:00,
2013-03-20 19:43:00,39.6,2.9,29.68,South,175,5.4,6.3,21,0.00,,---,0.00,VWS V14.01,2013-03-20 23:43:00,
2013-03-20 19:48:00,39.4,2.7,29.68,South,191,4.0,4.9,21,0.00,,---,0.00,VWS V14.01,2013-03-20 23:48:00,
2013-03-20 19:53:00,39.2,2.6,29.68,SSW,202,2.2,3.1,21,0.00,,---,0.00,VWS V14.01,2013-03-20 23:53:00,
2013-03-20 19:58:00,38.8,2.3,29.71,ESE,120,2.7,2.7,21,0.00,,---,0.00,VWS V14.01,2013-03-20 23:58:00,
2013-03-20 20:03:00,38.8,2.3,29.71,SW,220,4.0,8.3,21,0.00,,---,0.00,VWS V14.01,2013-03-21 00:03:00,
2013-03-20 20:08:00,39.0,2.4,29.71,WSW,244,3.1,5.8,21,0.00,,---,0.00,VWS V14.01,2013-03-21 00:08:00,
2013-03-20 20:13:00,38.7,2.1,29.68,SW,236,0.0,0.0,21,0.00,,---,0.00,VWS V14.01,2013-03-21 00:13:00,
2013-03-20 20:18:00,38.3,1.8,29.68,SW,233,2.2,3.1,21,0.00,,---,0.00,VWS V14.01,2013-03-21 00:18:00,
2013-03-20 20:23:00,38.1,1.6,29.68,WSW,247,5.4,5.8,21,0.00,,---,0.00,VWS V14.01,2013-03-21 00:23:00,
2013-03-20 20:28:00,38.5,2.0,29.71,ESE,115,3.1,3.1,21,0.00,,---,0.00,VWS V14.01,2013-03-21 00:28:00,
2013-03-20 20:33:00,38.5,2.0,29.71,SSW,204,0.0,2.2,21,0.00,,---,0.00,VWS V14.01,2013-03-21 00:33:00,
2013-03-20 20:38:00,37.9,1.5,29.71,South,188,2.2,2.2,21,0.00,,---,0.00,VWS V14.01,2013-03-21 00:38:00,
2013-03-20 20:44:00,37.4,1.0,29.68,South,188,0.0,0.0,21,0.00,,---,0.00,VWS V14.01,2013-03-21 00:44:00,
2013-03-20 20:49:00,37.0,1.7,29.68,WSW,257,0.0,3.6,22,0.00,,---,0.00,VWS V14.01,2013-03-21 00:49:00,
2013-03-20 20:54:00,37.4,1.0,29.68,South,188,4.0,4.0,21,0.00,,---,0.00,VWS V14.01,2013-03-21 00:54:00,
2013-03-20 20:59:00,37.8,1.4,29.68,South,190,3.6,3.6,21,0.00,,---,0.00,VWS V14.01,2013-03-21 00:59:00,
2013-03-20 21:04:00,37.9,1.5,29.68,SSE,159,3.1,5.4,21,0.00,,---,0.00,VWS V14.01,2013-03-21 01:04:00,
2013-03-20 21:09:00,38.1,1.6,29.68,SE,136,2.7,2.7,21,0.00,,---,0.00,VWS V14.01,2013-03-21 01:09:00,
2013-03-20 21:14:00,38.3,1.8,29.68,ESE,114,6.3,6.3,21,0.00,,---,0.00,VWS V14.01,2013-03-21 01:14:00,
2013-03-20 21:19:00,38.1,1.6,29.68,North,9,3.6,4.0,21,0.00,,---,0.00,VWS V14.01,2013-03-21 01:19:00,
2013-03-20 21:24:00,37.9,1.5,29.68,SW,214,2.7,3.6,21,0.00,,---,0.00,VWS V14.01,2013-03-21 01:24:00,
2013-03-20 21:29:00,38.1,1.6,29.68,SW,216,0.0,0.0,21,0.00,,---,0.00,VWS V14.01,2013-03-21 01:29:00,
2013-03-20 21:34:00,38.1,1.6,29.68,SW,220,6.3,6.3,21,0.00,,---,0.00,VWS V14.01,2013-03-21 01:34:00,
2013-03-20 21:39:00,38.1,4.5,29.68,SSW,201,4.0,5.4,24,0.00,,---,0.00,VWS V14.01,2013-03-21 01:39:00,
2013-03-20 21:44:00,37.6,4.1,29.71,ESE,114,0.0,0.0,24,0.00,,---,0.00,VWS V14.01,2013-03-21 01:44:00,
2013-03-20 21:49:00,36.9,6.0,29.71,SE,127,3.1,3.1,27,0.00,,---,0.00,VWS V14.01,2013-03-21 01:49:00,
2013-03-20 21:54:00,36.0,8.3,29.71,ESE,109,0.0,0.0,31,0.00,,---,0.00,VWS V14.01,2013-03-21 01:54:00,
2013-03-20 21:59:00,35.1,8.9,29.71,East,82,0.0,0.0,33,0.00,,---,0.00,VWS V14.01,2013-03-21 01:59:00,
2013-03-20 22:04:00,34.5,11.5,29.71,NE,47,4.0,4.0,38,0.00,,---,0.00,VWS V14.01,2013-03-21 02:04:00,
2013-03-20 22:09:00,34.2,12.4,29.71,SW,231,0.0,0.0,40,0.00,,---,0.00,VWS V14.01,2013-03-21 02:09:00,
2013-03-20 22:14:00,33.8,12.1,29.71,South,181,0.0,0.0,40,0.00,,---,0.00,VWS V14.01,2013-03-21 02:14:00,
2013-03-20 22:19:00,33.6,12.4,29.71,East,93,0.0,0.0,41,0.00,,---,0.00,VWS V14.01,2013-03-21 02:19:00,
2013-03-20 22:24:00,33.3,12.7,29.71,East,101,0.0,0.0,42,0.00,,---,0.00,VWS V14.01,2013-03-21 02:24:00,
2013-03-20 22:29:00,33.1,12.5,29.71,East,101,0.0,0.0,42,0.00,,---,0.00,VWS V14.01,2013-03-21 02:29:00,
2013-03-20 22:34:00,33.1,12.5,29.71,South,175,0.0,0.0,42,0.00,,---,0.00,VWS V14.01,2013-03-21 02:34:00,
2013-03-20 22:39:00,33.1,12.5,29.71,South,175,0.0,0.0,42,0.00,,---,0.00,VWS V14.01,2013-03-21 02:39:00,
2013-03-20 22:44:00,32.9,12.9,29.71,South,175,0.0,0.0,43,0.00,,---,0.00,VWS V14.01,2013-03-21 02:44:00,
2013-03-20 22:49:00,33.1,13.0,29.71,South,176,0.0,0.0,43,0.00,,---,0.00,VWS V14.01,2013-03-21 02:49:00,
2013-03-20 22:54:00,33.1,14.1,29.71,SSW,213,4.0,6.3,45,0.00,,---,0.00,VWS V14.01,2013-03-21 02:54:00,
2013-03-20 23:00:00,33.1,14.1,29.71,SSW,212,5.4,6.3,45,0.00,,---,0.00,VWS V14.01,2013-03-21 03:00:00,
2013-03-20 23:05:00,33.1,15.5,29.71,WSW,239,3.1,5.4,48,0.00,,---,0.00,VWS V14.01,2013-03-21 03:05:00,
2013-03-20 23:10:00,32.7,16.1,29.71,South,187,2.7,3.6,50,0.00,,---,0.00,VWS V14.01,2013-03-21 03:10:00,
2013-03-20 23:15:00,32.2,16.1,29.74,SW,218,4.9,4.9,51,0.00,,---,0.00,VWS V14.01,2013-03-21 03:15:00,
2013-03-20 23:20:00,31.1,16.8,29.74,SW,222,3.6,3.6,55,0.00,,---,0.00,VWS V14.01,2013-03-21 03:20:00,
2013-03-20 23:25:00,30.6,16.3,29.74,SW,227,2.7,2.7,55,0.00,,---,0.00,VWS V14.01,2013-03-21 03:25:00,
2013-03-20 23:30:00,30.2,17.2,29.74,WSW,248,2.2,2.7,58,0.00,,---,0.00,VWS V14.01,2013-03-21 03:30:00,
2013-03-20 23:35:00,30.0,17.0,29.74,SW,218,0.0,0.0,58,0.00,,---,0.00,VWS V14.01,2013-03-21 03:35:00,
2013-03-20 23:40:00,30.0,16.2,29.74,SSW,213,0.0,0.0,56,0.00,,---,0.00,VWS V14.01,2013-03-21 03:40:00,
2013-03-20 23:45:00,30.2,16.8,29.71,SSW,213,0.0,0.0,57,0.00,,---,0.00,VWS V14.01,2013-03-21 03:45:00,
2013-03-20 23:50:00,30.0,16.6,29.71,SSW,213,0.0,0.0,57,0.00,,---,0.00,VWS V14.01,2013-03-21 03:50:00,
2013-03-20 23:55:00,30.0,16.2,29.71,SSW,213,0.0,0.0,56,0.00,,---,0.00,VWS V14.01,2013-03-21 03:55:00,